Flag for France Weather past 2 weeks in Tours, France

Now
64 °F

Broken clouds.


Feels Like: 64 °F
Forecast: 55 / 73 °F
Wind: 10 mph from West

Location: Tours Airport

Current Time: Jul 28, 2015 at 12:34:24 PM

Latest Report: Jul 28, 2015 at 12:00 PM


Visibility: N/A

Pressure: 29.95 "Hg

Humidity: 56%

Dew point: 48 °F

Location of ToursLocation

Historic Weather in Tours — Graph

°F

Tours temperature yesterday

Maximum temperature yesterday: 75 °F (at 5:00 PM)
Minimum temperature yesterday: 61 °F (at 3:30 AM)
Average temperature yesterday: 66 °F

Past Weeks' High & Low Weather Summary

 TemperatureHumidityPressure
High99 °F (Jul 16, 5:30 PM)94% (Jul 14, 4:30 AM)30.18 "Hg (Jul 14, 4:30 AM)
Low52 °F (Jul 26, 4:30 AM)19% (Jul 16, 3:30 PM)29.71 "Hg (Jul 24, 6:00 PM)
Average71 °F65%29.99 "Hg
* Reported Jul 13 11:00 AM — Jul 28 11:30 AM, Tours, Weather by CustomWeather, © 2015

Note: Actual official high and low records may vary slightly from our data, if they occured in-between our weather recording intervals... More about our weather records

Advertising

Tours weather history for previous 24 hours

 ConditionsComfort  
Time TempWeatherWind HumidityBarometerVisibility
11:30 AM
Tue, Jul 28
64 °FPartly sunny.12 mph56%29.95 "HgN/A
11:00 AM64 °FMore clouds than sun.10 mph60%29.95 "HgN/A
10:30 AM63 °FPartly sunny.12 mph64%29.95 "HgN/A
10:00 AM61 °FPartly sunny.12 mph68%29.95 "HgN/A
9:30 AM61 °FSunny.12 mph72%29.95 "Hg10 mi
9:00 AM59 °FSunny.10 mph77%29.95 "Hg10 mi
8:30 AM57 °FSunny.12 mph82%29.95 "Hg10 mi
8:00 AM57 °FSunny.10 mph82%29.95 "Hg10 mi
7:30 AM55 °FPassing clouds.9 mph88%29.95 "HgN/A
7:00 AM55 °FClear.9 mph88%29.92 "Hg10 mi
6:30 AM55 °FClear.9 mph88%29.92 "Hg10 mi
5:30 AM57 °FClear.10 mph77%29.92 "Hg10 mi
5:00 AM57 °FClear.12 mph77%29.92 "Hg10 mi
4:30 AM57 °FClear.10 mph82%29.92 "Hg10 mi
4:00 AM57 °FClear.12 mph82%29.92 "Hg10 mi
3:30 AM57 °FMostly cloudy.10 mph82%29.92 "HgN/A
3:00 AM57 °FPassing clouds.12 mph82%29.92 "HgN/A
2:30 AM57 °FClear.12 mph82%29.92 "Hg10 mi
2:00 AM59 °FClear.12 mph77%29.92 "Hg10 mi
1:30 AM59 °FClear.9 mph77%29.92 "Hg10 mi
1:00 AM61 °FClear.12 mph68%29.92 "Hg10 mi
12:30 AM61 °FClear.16 mph68%29.92 "Hg10 mi
12:00 AM63 °FClear.15 mph64%29.92 "Hg10 mi
11:30 PM
Mon, Jul 27
63 °FClear.12 mph64%29.89 "Hg10 mi
11:00 PM64 °FPassing clouds.13 mph64%29.89 "HgN/A
10:30 PM64 °FPartly sunny.13 mph64%29.89 "HgN/A
10:00 PM66 °FPassing clouds.14 mph56%29.89 "HgN/A
9:30 PM66 °FSunny.15 mph60%29.89 "Hg10 mi
9:00 PM68 °FSunny.14 mph53%29.89 "Hg10 mi
8:30 PM68 °FSunny.14 mph53%29.86 "Hg10 mi
8:00 PM70 °FSunny.17 mph46%29.86 "Hg10 mi
7:30 PM70 °FSunny.18 mph43%29.86 "Hg10 mi
7:00 PM70 °FPassing clouds.20 mph46%29.86 "HgN/A
6:30 PM72 °FSunny.24 mph44%29.86 "Hg10 mi
6:00 PM72 °FSunny.21 mph41%29.86 "Hg10 mi
5:30 PM73 °FSunny.21 mph44%29.86 "Hg10 mi
5:00 PM75 °FPassing clouds.21 mph41%29.86 "HgN/A
4:30 PM73 °FPartly sunny.23 mph44%29.86 "HgN/A
4:00 PM73 °FBroken clouds.22 mph47%29.83 "HgN/A
3:30 PM73 °FBroken clouds.21 mph50%29.83 "HgN/A
3:00 PM72 °FPartly sunny.20 mph53%29.83 "HgN/A
2:30 PM73 °FBroken clouds.22 mph50%29.83 "HgN/A
2:00 PM72 °FBroken clouds.18 mph57%29.83 "HgN/A
1:30 PM68 °FMostly cloudy.20 mph60%29.83 "HgN/A
1:00 PM68 °FPartly sunny.17 mph64%29.86 "HgN/A
12:30 PM66 °FMostly cloudy.18 mph64%29.86 "HgN/A
12:00 PM68 °FBroken clouds.16 mph64%29.83 "HgN/A
Weather by CustomWeather, © 2015

See weather overviewHow to use our weather pages